K5LRY-13 Weather Reports


Display with metric or nautical units.
time (UTC)temp
F
wind
direction
speed
MPH
gust
MPH
rain 1hr
in
rain 24hr
in
rain mn
in
humidity
%
barometer
mb
20260903101826 47 256 0.0 0.0 0.00 0.00 0.00 82 1031.9
20260903100320 47 256 0.0 0.0 0.00 0.00 0.00 81 1031.8
20260903094813 47 256 0.0 0.0 0.00 0.00 0.00 80 1031.7
20260903093328 48 256 0.0 0.0 0.00 0.00 0.00 79 1031.6
20260903091821 48 256 0.0 0.0 0.00 0.00 0.00 78 1031.7
20260903090315 49 256 0.0 0.0 0.00 0.00 0.00 78 1031.8
20260903084829 49 256 0.0 0.0 0.00 0.00 0.00 77 1031.8
20260903083324 49 256 0.0 0.0 0.00 0.00 0.00 77 1031.9
20260903081816 49 256 0.0 0.0 0.00 0.00 0.00 76 1031.9
20260903080330 50 256 0.0 0.0 0.00 0.00 0.00 75 1032.1
20260903074824 50 256 0.0 0.0 0.00 0.00 0.00 75 1032.1
20260903073319 50 256 0.0 0.0 0.00 0.00 0.00 74 1032.1
20260903071832 50 256 0.0 0.0 0.00 0.00 0.00 73 1032.0
20260903070319 50 256 0.0 0.0 0.00 0.00 0.00 71 1032.0
20260903064813 51 256 0.0 0.0 0.00 0.00 0.00 69 1031.9
20260903063328 51 256 0.0 0.0 0.00 0.00 0.00 68 1031.8
20260903061829 52 256 0.0 0.0 0.00 0.00 0.00 68 1032.0
20260903060343 51 256 0.0 0.0 0.00 0.00 0.00 68 1032.0
20260903054817 51 256 0.0 3.0 0.00 0.00 0.00 68 1032.1
20260903053331 51 256 0.0 2.0 0.00 0.00 0.00 65 1032.0
20260903051817 51 256 0.0 0.0 0.00 0.00 0.00 64 1032.0
20260903050312 52 256 0.0 2.0 0.00 0.00 0.00 62 1032.1
20260903044832 52 256 0.0 0.0 0.00 0.00 0.00 61 1032.1
20260903043320 53 256 0.0 0.0 0.00 0.00 0.00 59 1032.1
20260903041813 53 257 0.0 1.0 0.00 0.00 0.00 57 1032.1
20260903040312 54 257 0.0 0.0 0.00 0.00 0.00 55 1032.1
20260903034850 54 258 0.0 2.0 0.00 0.00 0.00 53 1032.3
20260903033320 55 258 0.0 0.0 0.00 0.00 0.00 51 1032.2
20260903031814 57 258 0.0 0.0 0.00 0.00 0.00 49 1032.1
20260903030328 58 258 0.0 0.0 0.00 0.00 0.00 46 1032.1
20260903024822 60 258 0.0 6.0 0.00 0.00 0.00 44 1032.0
20260903023317 62 258 0.0 0.0 0.00 0.00 0.00 40 1031.8
20260903021851 64 258 0.0 0.0 0.00 0.00 0.00 36 1031.7
20260903020345 66 258 0.0 0.0 0.00 0.00 0.00 31 1031.7
20260903014819 68 258 0.0 4.0 0.00 0.00 0.00 28 1031.6
20260903013313 70 260 1.0 9.0 0.00 0.00 0.00 25 1031.5
20260903011825 72 266 1.0 9.0 0.00 0.00 0.00 23 1031.7
20260903010319 74 269 3.0 9.0 0.00 0.00 0.00 20 1031.6
20260903004859 75 270 4.0 10.0 0.00 0.00 0.00 19 1031.8
20260903003353 77 275 4.0 14.0 0.00 0.00 0.00 19 1031.9
20260903001825 77 244 3.0 8.0 0.00 0.00 0.00 19 1031.9
20260903000312 76 268 0.0 10.0 0.00 0.00 0.00 21 1032.0
20260902234834 77 250 1.0 14.0 0.00 0.00 0.00 19 1032.1
20260902233321 78 181 5.0 18.0 0.00 0.00 0.00 17 1032.1
20260902231833 79 237 4.0 15.0 0.00 0.00 0.00 17 1032.1
20260902230334 77 219 2.0 8.0 0.00 0.00 0.00 19 1032.1
20260902224828 77 160 2.0 11.0 0.00 0.00 0.00 21 1032.3
20260902223321 79 253 3.0 17.0 0.00 0.00 0.00 19 1032.6
20260902221835 78 224 6.0 16.0 0.00 0.00 0.00 19 1032.7
20260902220328 77 258 7.0 16.0 0.00 0.00 0.00 20 1032.9
20260902214822 78 280 4.0 15.0 0.00 0.00 0.00 19 1032.9
20260902213337 77 158 3.0 9.0 0.00 0.00 0.00 21 1033.0
20260902211821 77 245 4.0 11.0 0.00 0.00 0.00 20 1033.1
20260902210314 76 260 4.0 11.0 0.00 0.00 0.00 22 1033.4
20260902204858 76 239 5.0 11.0 0.00 0.00 0.00 22 1033.6
20260902203331 75 285 5.0 15.0 0.00 0.00 0.00 21 1033.9
20260902201816 74 251 2.0 10.0 0.00 0.00 0.00 23 1034.1
20260902200338 74 268 0.0 11.0 0.00 0.00 0.00 24 1034.2
20260902194830 74 237 2.0 9.0 0.00 0.00 0.00 25 1034.5
20260902193318 74 250 2.0 10.0 0.00 0.00 0.00 26 1034.5
20260902191815 74 237 2.0 15.0 0.00 0.00 0.00 26 1034.5
20260902190332 73 258 1.0 14.0 0.00 0.00 0.00 27 1034.6
20260902184846 73 249 1.0 9.0 0.00 0.00 0.00 31 1034.8
20260902183324 72 166 4.0 12.0 0.00 0.00 0.00 35 1035.0
20260902181837 72 181 5.0 14.0 0.00 0.00 0.00 34 1035.1
20260902180323 71 208 1.0 14.0 0.00 0.00 0.00 35 1035.2
20260902174818 70 189 1.0 9.0 0.00 0.00 0.00 41 1035.3
20260902173313 69 183 1.0 8.0 0.00 0.00 0.00 37 1035.4
20260902171826 70 264 1.0 7.0 0.00 0.00 0.00 37 1035.3
20260902170341 70 167 0.0 8.0 0.00 0.00 0.00 39 1035.3
20260902164814 68 163 2.0 9.0 0.00 0.00 0.00 41 1035.3
20260902163329 68 192 1.0 11.0 0.00 0.00 0.00 43 1034.8
20260902161822 67 234 4.0 10.0 0.00 0.00 0.00 42 1035.0
20260902160315 66 214 1.0 8.0 0.00 0.00 0.00 46 1034.6
20260902154830 64 152 2.0 9.0 0.00 0.00 0.00 48 1034.5
20260902153324 62 225 0.0 7.0 0.00 0.00 0.00 53 1034.4
20260902151816 61 266 2.0 8.0 0.00 0.00 0.00 53 1034.5
20260902150329 58 221 0.0 2.0 0.00 0.00 0.00 62 1034.3
20260902144823 53 222 0.0 4.0 0.00 0.00 0.00 73 1034.1
20260902143318 49 313 0.0 0.0 0.00 0.00 0.00 86 1033.9
20260902141832 47 314 0.0 0.0 0.00 0.00 0.00 91 1034.0
20260902140346 46 313 0.0 0.0 0.00 0.00 0.00 91 1033.7
20260902134819 45 314 0.0 0.0 0.00 0.00 0.00 90 1033.6
20260902133335 45 313 0.0 0.0 0.00 0.00 0.00 90 1033.4
20260902131827 45 313 0.0 0.0 0.00 0.00 0.00 89 1033.3
20260902130322 44 314 0.0 0.0 0.00 0.00 0.00 89 1033.3
20260902124837 44 314 0.0 0.0 0.00 0.00 0.00 88 1033.3
20260902123331 45 314 0.0 0.0 0.00 0.00 0.00 88 1033.3
20260902121824 45 314 0.0 0.0 0.00 0.00 0.00 88 1033.1
20260902120318 45 314 0.0 0.0 0.00 0.00 0.00 87 1033.0
20260902114833 45 313 0.0 0.0 0.00 0.00 0.00 87 1033.0
20260902113334 45 313 0.0 0.0 0.00 0.00 0.00 87 1033.0
20260902111819 45 313 0.0 0.0 0.00 0.00 0.00 87 1033.0
20260902110318 45 314 0.0 0.0 0.00 0.00 0.00 87 1033.0
20260902104834 46 313 0.0 0.0 0.00 0.00 0.00 87 1033.0
20260902103327 46 314 0.0 0.0 0.00 0.00 0.00 87 1033.0